Location: Newark
(22.8000°N, 86.1800°E)
Time: 15:37:34
(UTC+00:00)

Envisat - Visible Passes

Search period start: 17 February 2020 00:00
Search period end: 27 February 2020 00:00
Orbit: 764 x 766 km, 98.1° (Epoch: 17 February)

Date Brightness Start Highest point End Pass type
(mag) Time Alt. Az. Time Alt. Az. Time Alt. Az.
17 Feb 5.7 13:09:27 10° SSW 13:13:22 23° W 13:17:18 10° NW visible
17 Feb 5.9 23:49:19 10° NE 23:53:02 20° E 23:56:44 10° SE visible
18 Feb 3.7 12:31:33 10° S 12:36:33 60° W 12:41:33 10° NNW visible
19 Feb 6.6 13:37:41 10° WSW 13:38:57 11° W 13:40:14 10° W visible
20 Feb 4.6 00:13:49 10° NNE 00:18:35 40° E 00:23:18 10° S visible
20 Feb 5.2 12:57:39 10° SSW 13:02:03 30° W 13:06:27 10° NW visible
20 Feb 6.3 23:38:48 10° ENE 23:41:42 15° E 23:44:35 10° SE visible
22 Feb 6.3 13:24:45 10° SW 13:27:36 15° W 13:30:28 10° WNW visible
23 Feb 5.2 00:02:49 10° NE 00:07:15 30° E 00:11:40 10° SSE visible
23 Feb 4.6 12:46:01 10° SSW 12:50:44 40° W 12:55:28 10° NNW visible
23 Feb 6.6 23:28:58 10° E 23:30:20 11° E 23:31:44 10° ESE visible
25 Feb 5.9 13:12:35 10° SW 13:16:16 20° W 13:19:58 10° NW visible
25 Feb 5.8 23:51:58 10° NE 23:55:56 23° E 23:59:52 10° SSE visible
26 Feb 4.0 12:34:30 10° S 12:39:26 53° W 12:44:23 10° NNW visible
